Location: Newark
(40.9833°N, 0.0333°W)
Time: 01:39:53
(UTC+00:00)

Altair - Pass Details

Date: 29 October 2020
Orbit: 1502 x 1682 km, 47.2° (Epoch: 02 December)

Event Time Altitude Azimuth Distance (km) Brightness Sun altitude
Rises 09:36:26 0° 293° (WNW) 4,733 9.6 27.9°
Reaches altitude 10° 09:39:28 10° 295° (WNW) 3,771 9.2 28.2°
Maximum altitude 09:49:08 80° 23° (NNE) 1,643 8.1 29.2°
Drops below altitude 10° 09:59:09 10° 111° (ESE) 3,902 10.5 30.2°
Sets 10:02:21 0° 112° (ESE) 4,903 10.8 30.5°
